London Gatwick, United Kingdom

5:06 AM BST on August 21, 2017 (GMT +0100)
Gatwick

Weather History for EGKK - November, 2013

Change the Weather History Date:

Thursday, November 21, 2013

  Actual Average Record
Temperature  
Mean Temperature 40 °F -  
Max Temperature 44 °F 47 °F 55 °F (2011)
Min Temperature 35 °F 35 °F 24 °F (1996)
Degree Days  
Heating Degree Days 26    
Moisture  
Dew Point 36 °F    
Average Humidity 86    
Maximum Humidity 93    
Minimum Humidity 70    
Precipitation  
Precipitation 0.00 in 0.10 in - ()
Sea Level Pressure  
Sea Level Pressure 29.64 in    
Wind  
Wind Speed 11 mph ()    
Max Wind Speed 24 mph    
Max Gust Speed 38 mph    
Visibility 6.1 miles    
Events Rain    
Averages and records for this station are not official NWS values.
T = Trace of Precipitation, MM = Missing Value Source: Averaged Metar Reports

Daily Weather History Graph

Daily Weather History Graph

Search for Another Location

Airport or City:

Trip Planner

Search our weather history database for the weather conditions in past years. The results will help you decide how hot, cold, wet, or windy it might be!

Date:

Astronomy

Nov. 21, 2013 Rise Set
Actual Time 7:27 AM GMT 4:05 PM GMT
Civil Twilight 6:50 AM GMT 4:42 PM GMT
Nautical Twilight 6:09 AM GMT 5:23 PM GMT
Astronomical Twilight 5:29 AM GMT 6:02 PM GMT
Moon 7:31 PM GMT 10:22 AM GMT
Length of Visible Light 9h 52m
Length of Day
8h 37m
Waning Gibbous, 87% of the Moon is Illuminated
Nov 21
Waning Gibbous
Nov 25
Last Quarter
Dec 3
New
Dec 9
First Quarter
Dec 17
Full

Hourly Weather History & Observations

Time (GMT) Temp. Windchill Dew Point Humidity Pressure Visibility Wind Dir Wind Speed Gust Speed Precip Events Conditions
12:20 AM 35.6 °F - 33.8 °F 93% 29.42 in 4.3 mi Variable 2.3 mph - N/A Rain Light Rain
12:50 AM 37.4 °F 30.3 °F 35.6 °F 93% 29.42 in 6.2 mi North 10.4 mph - N/A   Mostly Cloudy
1:20 AM 37.4 °F 30.8 °F 33.8 °F 87% 29.42 in 6.2 mi NNW 9.2 mph - N/A   Mostly Cloudy
1:50 AM 37.4 °F 29.8 °F 33.8 °F 87% 29.42 in 6.2 mi North 11.5 mph - N/A   Mostly Cloudy
2:20 AM 37.4 °F 29.3 °F 35.6 °F 93% 29.42 in 6.2 mi NNW 12.7 mph - N/A   Mostly Cloudy
2:50 AM 37.4 °F 29.3 °F 35.6 °F 93% 29.42 in 6.2 mi NNW 12.7 mph - N/A   Mostly Cloudy
3:20 AM 37.4 °F 30.3 °F 35.6 °F 93% 29.44 in 6.2 mi NNW 10.4 mph - N/A   Mostly Cloudy
3:50 AM 37.4 °F 29.8 °F 35.6 °F 93% 29.44 in 6.2 mi NW 11.5 mph - N/A Rain Light Rain
4:20 AM 37.4 °F 29.3 °F 35.6 °F 93% 29.44 in 6.2 mi NW 12.7 mph - N/A Rain Light Rain
4:50 AM 37.4 °F 29.3 °F 35.6 °F 93% 29.42 in 5.0 mi WNW 12.7 mph - N/A Rain Light Rain
5:20 AM 39.2 °F 32.0 °F 37.4 °F 93% 29.42 in 5.0 mi NW 11.5 mph - N/A Rain Light Rain
5:50 AM 39.2 °F 32.0 °F 37.4 °F 93% 29.44 in 6.2 mi NNW 11.5 mph - N/A   Mostly Cloudy
6:20 AM 41.0 °F 34.7 °F 37.4 °F 87% 29.44 in 6.2 mi North 10.4 mph - N/A   Mostly Cloudy
6:50 AM 41.0 °F 33.5 °F 37.4 °F 87% 29.44 in 6.2 mi North 13.8 mph - N/A   Mostly Cloudy
7:20 AM 41.0 °F 33.1 °F 37.4 °F 87% 29.47 in 6.2 mi North 15.0 mph - N/A   Mostly Cloudy
7:50 AM 41.0 °F 32.2 °F 37.4 °F 87% 29.47 in 6.2 mi North 18.4 mph - N/A   Mostly Cloudy
8:20 AM 41.0 °F 31.6 °F 37.4 °F 87% 29.50 in 6.2 mi North 20.7 mph - N/A Rain Light Rain
8:50 AM 41.0 °F 31.6 °F 37.4 °F 87% 29.50 in 6.2 mi NNE 20.7 mph - N/A   Mostly Cloudy
9:20 AM 41.0 °F 30.9 °F 37.4 °F 87% 29.53 in 6.2 mi NNE 24.2 mph 38.0 mph N/A Rain Light Rain
9:50 AM 41.0 °F 32.5 °F 37.4 °F 87% 29.59 in 5.6 mi NNE 17.3 mph - N/A Rain Light Rain
10:20 AM 41.0 °F 33.5 °F 37.4 °F 87% 29.62 in 6.2 mi NE 13.8 mph - N/A Rain Light Rain
10:50 AM 41.0 °F 32.5 °F 37.4 °F 87% 29.62 in 6.2 mi NE 17.3 mph - N/A Rain Light Rain
11:20 AM 41.0 °F 33.9 °F 39.2 °F 93% 29.65 in 6.2 mi NNE 12.7 mph - N/A   Mostly Cloudy
11:50 AM 42.8 °F 36.2 °F 39.2 °F 87% 29.65 in 6.2 mi NNE 12.7 mph - N/A Rain Light Rain
12:20 PM 42.8 °F 34.3 °F 39.2 °F 87% 29.65 in 6.2 mi NNE 19.6 mph - N/A Rain Light Rain
12:50 PM 42.8 °F 35.4 °F 39.2 °F 87% 29.68 in 6.2 mi NNE 15.0 mph - N/A Rain Light Rain
1:20 PM 42.8 °F 36.2 °F 39.2 °F 87% 29.68 in 6.2 mi NNE 12.7 mph - N/A Rain Light Rain
1:50 PM 42.8 °F 35.1 °F 37.4 °F 81% 29.68 in 6.2 mi NNE 16.1 mph - N/A   Mostly Cloudy
2:20 PM 44.6 °F 37.4 °F 37.4 °F 76% 29.71 in 6.2 mi NNE 16.1 mph - N/A   Scattered Clouds
2:50 PM 42.8 °F 34.8 °F 35.6 °F 76% 29.71 in 6.2 mi NNE 17.3 mph - N/A   Partly Cloudy
3:20 PM 42.8 °F 35.1 °F 33.8 °F 70% 29.74 in 6.2 mi NNE 16.1 mph - N/A   Partly Cloudy
3:50 PM 42.8 °F 35.4 °F 33.8 °F 70% 29.74 in 6.2 mi NNE 15.0 mph - N/A   Partly Cloudy
4:20 PM 42.8 °F 36.6 °F 33.8 °F 70% 29.77 in 6.2 mi NNE 11.5 mph - N/A   Partly Cloudy
4:50 PM 42.8 °F 38.0 °F 35.6 °F 76% 29.77 in 6.2 mi NNE 8.1 mph - N/A Rain Light Rain
5:20 PM 41.0 °F 35.2 °F 35.6 °F 81% 29.80 in 6.2 mi NE 9.2 mph - N/A Rain Light Rain
5:50 PM 41.0 °F 35.2 °F 35.6 °F 81% 29.80 in 6.2 mi NNE 9.2 mph - N/A   Partly Cloudy
6:20 PM 41.0 °F 34.7 °F 35.6 °F 81% 29.83 in 6.2 mi North 10.4 mph - N/A   Partly Cloudy
6:50 PM 41.0 °F 34.7 °F 35.6 °F 81% 29.83 in 6.2 mi North 10.4 mph - N/A   Partly Cloudy
7:20 PM 39.2 °F 33.6 °F 35.6 °F 87% 29.83 in 6.2 mi North 8.1 mph - N/A   Partly Cloudy
7:50 PM 39.2 °F 33.6 °F 33.8 °F 81% 29.86 in 6.2 mi North 8.1 mph - N/A   Partly Cloudy
8:20 PM 39.2 °F 33.0 °F 33.8 °F 81% 29.86 in - North 9.2 mph - N/A   Clear
8:50 PM 39.2 °F 33.6 °F 33.8 °F 81% 29.86 in - North 8.1 mph - N/A   Clear
9:20 PM 39.2 °F 33.0 °F 33.8 °F 81% 29.86 in - North 9.2 mph - N/A   Clear
9:50 PM 37.4 °F 31.4 °F 33.8 °F 87% 29.89 in - North 8.1 mph - N/A   Clear
10:20 PM 37.4 °F 31.4 °F 33.8 °F 87% 29.89 in - NNW 8.1 mph - N/A   Clear
10:50 PM 37.4 °F 31.4 °F 33.8 °F 87% 29.89 in - NNW 8.1 mph - N/A   Clear
11:20 PM 37.4 °F 30.8 °F 33.8 °F 87% 29.92 in - North 9.2 mph - N/A   Clear
11:50 PM 37.4 °F 31.4 °F 33.8 °F 87% 29.92 in - North 8.1 mph - N/A   Clear